FDX5062 KSTL-KMEM

Flight info

Callsign FDX5062
Flight time 0h 49m
Altitude 30000
Route CHUUC6 MYERZ WHOLL BRBBQ3
Aircraft B738/M-SDE2E3FGHIRWXY/LB1

Departure

Time 2026-05-05 17:50
Airport St. Louis Lambert International Airport (KSTL)

Arrival

Time 2026-05-05 18:39
Airport Memphis International Airport (KMEM)
Time Latitude Longitude Altitude Speed Heading
2026-05-05 17:08 38.74947 -90.34978 581 ft 0 kts 33°
2026-05-05 17:37 38.74947 -90.34979 581 ft 1 kts 33°
2026-05-05 17:37 38.74926 -90.34993 580 ft 4 kts 13°
2026-05-05 17:37 38.74900 -90.34995 579 ft 4 kts 349°
2026-05-05 17:38 38.74884 -90.34991 579 ft 1 kts 345°
2026-05-05 17:38 38.74883 -90.34990 579 ft 1 kts 345°
2026-05-05 17:41 38.74885 -90.34992 579 ft 2 kts 330°
2026-05-05 17:41 38.74874 -90.35023 578 ft 7 kts 220°
2026-05-05 17:41 38.74827 -90.35070 576 ft 9 kts 212°
2026-05-05 17:41 38.74768 -90.35105 578 ft 9 kts 204°
2026-05-05 17:42 38.74715 -90.35150 583 ft 9 kts 214°
2026-05-05 17:42 38.74661 -90.35190 579 ft 9 kts 203°
2026-05-05 17:42 38.74611 -90.35235 580 ft 9 kts 216°
2026-05-05 17:42 38.74559 -90.35282 582 ft 10 kts 215°
2026-05-05 17:43 38.74503 -90.35330 584 ft 10 kts 211°
2026-05-05 17:43 38.74444 -90.35374 583 ft 11 kts 211°
2026-05-05 17:43 38.74364 -90.35367 579 ft 14 kts 131°
2026-05-05 17:43 38.74310 -90.35262 580 ft 14 kts 121°
2026-05-05 17:44 38.74260 -90.35157 583 ft 13 kts 121°
2026-05-05 17:44 38.74208 -90.35053 585 ft 14 kts 122°
2026-05-05 17:44 38.74156 -90.34949 588 ft 13 kts 122°
2026-05-05 17:44 38.74108 -90.34850 592 ft 13 kts 122°
2026-05-05 17:45 38.74056 -90.34742 594 ft 15 kts 122°
2026-05-05 17:45 38.73997 -90.34624 597 ft 16 kts 123°
2026-05-05 17:45 38.73920 -90.34551 598 ft 15 kts 193°
2026-05-05 17:45 38.73873 -90.34583 597 ft 0 kts 212°
2026-05-05 17:46 38.73871 -90.34584 597 ft 1 kts 212°
2026-05-05 17:46 38.73866 -90.34588 597 ft 1 kts 212°
2026-05-05 17:46 38.73853 -90.34599 597 ft 5 kts 211°
2026-05-05 17:47 38.73814 -90.34629 597 ft 7 kts 214°
2026-05-05 17:47 38.73791 -90.34681 596 ft 7 kts 265°
2026-05-05 17:47 38.73798 -90.34709 596 ft 0 kts 296°
2026-05-05 17:49 38.73825 -90.34763 596 ft 36 kts 305°
2026-05-05 17:49 38.74129 -90.35372 582 ft 125 kts 302°
2026-05-05 17:49 38.74732 -90.36559 719 ft 184 kts 303°
2026-05-05 17:50 38.75420 -90.37965 1719 ft 185 kts 302°
2026-05-05 17:50 38.76062 -90.39371 2837 ft 189 kts 303°
2026-05-05 17:50 38.76811 -90.40886 3262 ft 215 kts 303°
2026-05-05 17:50 38.77660 -90.42590 3607 ft 235 kts 303°
2026-05-05 17:51 38.78418 -90.44474 4314 ft 241 kts 284°
2026-05-05 17:51 38.78245 -90.46574 5084 ft 244 kts 246°
2026-05-05 17:51 38.77339 -90.48397 5934 ft 243 kts 232°
2026-05-05 17:51 38.76276 -90.50051 6690 ft 244 kts 231°
2026-05-05 17:52 38.75119 -90.51640 7452 ft 245 kts 219°
2026-05-05 17:52 38.73593 -90.52604 8185 ft 246 kts 199°
2026-05-05 17:52 38.71958 -90.53278 8886 ft 249 kts 201°
2026-05-05 17:52 38.70324 -90.54016 9589 ft 250 kts 201°
2026-05-05 17:53 38.68669 -90.54727 10271 ft 252 kts 197°
2026-05-05 17:53 38.66907 -90.54949 10962 ft 258 kts 185°
2026-05-05 17:53 38.65091 -90.54961 11498 ft 268 kts 186°
2026-05-05 17:53 38.63126 -90.55002 11697 ft 295 kts 186°
2026-05-05 17:54 38.60985 -90.55059 11912 ft 320 kts 186°
2026-05-05 17:54 38.58706 -90.55124 12126 ft 342 kts 186°
2026-05-05 17:54 38.56287 -90.55192 12660 ft 352 kts 186°
2026-05-05 17:54 38.53819 -90.55264 13346 ft 358 kts 186°
2026-05-05 17:55 38.51316 -90.55341 14066 ft 362 kts 186°
2026-05-05 17:55 38.48784 -90.55420 14748 ft 367 kts 187°
2026-05-05 17:55 38.46210 -90.55506 15381 ft 373 kts 187°
2026-05-05 17:55 38.43595 -90.55594 16027 ft 378 kts 187°
2026-05-05 17:56 38.40956 -90.55684 16681 ft 382 kts 187°
2026-05-05 17:56 38.38280 -90.55775 17273 ft 387 kts 187°
2026-05-05 17:56 38.35602 -90.55866 17810 ft 393 kts 188°
2026-05-05 17:56 38.32852 -90.55961 18375 ft 398 kts 188°
2026-05-05 17:57 38.30068 -90.56055 18986 ft 401 kts 188°
2026-05-05 17:57 38.27274 -90.56147 19682 ft 401 kts 188°
2026-05-05 17:57 38.24475 -90.56239 20299 ft 404 kts 188°
2026-05-05 17:57 38.21657 -90.56336 20848 ft 407 kts 189°
2026-05-05 17:58 38.18820 -90.56433 21387 ft 410 kts 189°
2026-05-05 17:58 38.15961 -90.56530 21921 ft 412 kts 189°
2026-05-05 17:58 38.13089 -90.56626 22458 ft 414 kts 189°
2026-05-05 17:58 38.10205 -90.56723 22962 ft 416 kts 189°
2026-05-05 17:59 38.07348 -90.56855 23434 ft 416 kts 191°
2026-05-05 17:59 38.04453 -90.57129 23911 ft 417 kts 193°
2026-05-05 17:59 38.01563 -90.57464 24382 ft 418 kts 194°
2026-05-05 17:59 37.98656 -90.57818 24799 ft 421 kts 194°
2026-05-05 18:00 37.95725 -90.58172 25134 ft 426 kts 194°
2026-05-05 18:00 37.92755 -90.58520 25489 ft 430 kts 193°
2026-05-05 18:00 37.89767 -90.58858 25872 ft 433 kts 193°
2026-05-05 18:00 37.86757 -90.59191 26240 ft 436 kts 193°
2026-05-05 18:01 37.83728 -90.59522 26583 ft 439 kts 193°
2026-05-05 18:01 37.80719 -90.59849 26921 ft 441 kts 193°
2026-05-05 18:01 37.77647 -90.60181 27249 ft 444 kts 194°
2026-05-05 18:01 37.74554 -90.60515 27589 ft 447 kts 193°
2026-05-05 18:02 37.71461 -90.60847 28035 ft 446 kts 194°
2026-05-05 18:02 37.68378 -90.61176 28508 ft 444 kts 194°
2026-05-05 18:02 37.65303 -90.61506 28946 ft 444 kts 194°
2026-05-05 18:02 37.62221 -90.61839 29348 ft 444 kts 194°
2026-05-05 18:03 37.59143 -90.62173 29753 ft 444 kts 194°
2026-05-05 18:03 37.56050 -90.62509 29887 ft 448 kts 194°
2026-05-05 18:03 37.52989 -90.62841 29890 ft 448 kts 194°
2026-05-05 18:04 37.46808 -90.63502 29904 ft 444 kts 194°
2026-05-05 18:04 37.40641 -90.64166 29900 ft 445 kts 194°
2026-05-05 18:05 37.34458 -90.64832 29889 ft 447 kts 194°
2026-05-05 18:05 37.28246 -90.65497 29880 ft 449 kts 194°
2026-05-05 18:06 37.22060 -90.66159 29868 ft 449 kts 195°
2026-05-05 18:06 37.16398 -90.68380 29892 ft 415 kts 219°
2026-05-05 18:07 37.11268 -90.71821 29862 ft 420 kts 216°
2026-05-05 18:07 37.06028 -90.75079 29850 ft 420 kts 215°
2026-05-05 18:08 37.00826 -90.78293 29850 ft 420 kts 216°
2026-05-05 18:08 36.95600 -90.81540 29852 ft 419 kts 216°
2026-05-05 18:09 36.90389 -90.84788 29850 ft 419 kts 216°
2026-05-05 18:09 36.85173 -90.88035 29855 ft 419 kts 216°
2026-05-05 18:10 36.79980 -90.91262 29850 ft 420 kts 216°
2026-05-05 18:10 36.74742 -90.94513 29837 ft 420 kts 216°
2026-05-05 18:11 36.69500 -90.97755 29832 ft 421 kts 215°
2026-05-05 18:11 36.64260 -91.00993 29840 ft 421 kts 216°
2026-05-05 18:12 36.59048 -91.04215 29838 ft 421 kts 215°
2026-05-05 18:12 36.53795 -91.07456 29832 ft 421 kts 215°
2026-05-05 18:12 36.51196 -91.09050 29714 ft 412 kts 216°
2026-05-05 18:13 36.48648 -91.10612 29387 ft 403 kts 216°
2026-05-05 18:13 36.46155 -91.12142 28931 ft 398 kts 216°
2026-05-05 18:13 36.43695 -91.13653 28489 ft 393 kts 216°
2026-05-05 18:13 36.41257 -91.15153 28026 ft 389 kts 216°
2026-05-05 18:14 36.38875 -91.16617 27571 ft 385 kts 216°
2026-05-05 18:14 36.36487 -91.18083 27118 ft 381 kts 216°
2026-05-05 18:14 36.34127 -91.19530 26663 ft 377 kts 215°
2026-05-05 18:14 36.31784 -91.20966 26224 ft 374 kts 215°
2026-05-05 18:15 36.29468 -91.22386 25781 ft 370 kts 215°
2026-05-05 18:15 36.27166 -91.23797 25338 ft 367 kts 215°
2026-05-05 18:15 36.24887 -91.25191 24902 ft 364 kts 215°
2026-05-05 18:15 36.22624 -91.26572 24464 ft 361 kts 214°
2026-05-05 18:16 36.20372 -91.27848 24024 ft 365 kts 207°
2026-05-05 18:16 36.17799 -91.28287 23593 ft 384 kts 186°
2026-05-05 18:16 36.15159 -91.27712 23381 ft 391 kts 169°
2026-05-05 18:16 36.12653 -91.26299 23032 ft 397 kts 161°
2026-05-05 18:17 36.10190 -91.24759 22580 ft 397 kts 161°
2026-05-05 18:17 36.07717 -91.23217 22159 ft 399 kts 161°
2026-05-05 18:17 36.05208 -91.21670 21730 ft 406 kts 161°
2026-05-05 18:17 36.02683 -91.20124 21275 ft 405 kts 161°
2026-05-05 18:18 36.00163 -91.18588 20816 ft 402 kts 161°
2026-05-05 18:18 35.97697 -91.17090 20370 ft 399 kts 161°
2026-05-05 18:18 35.95209 -91.15584 19934 ft 396 kts 161°
2026-05-05 18:18 35.92743 -91.14094 19503 ft 393 kts 160°
2026-05-05 18:19 35.90287 -91.12612 19057 ft 391 kts 160°
2026-05-05 18:19 35.87856 -91.11147 18637 ft 388 kts 160°
2026-05-05 18:19 35.85438 -91.09690 18213 ft 385 kts 160°
2026-05-05 18:19 35.83035 -91.08243 17785 ft 383 kts 160°
2026-05-05 18:20 35.80653 -91.06811 17373 ft 380 kts 160°
2026-05-05 18:20 35.78322 -91.05416 17001 ft 375 kts 160°
2026-05-05 18:20 35.75983 -91.04018 16649 ft 371 kts 160°
2026-05-05 18:20 35.73678 -91.02641 16309 ft 366 kts 160°
2026-05-05 18:21 35.71393 -91.01278 15904 ft 364 kts 161°
2026-05-05 18:21 35.69128 -90.99929 15511 ft 360 kts 161°
2026-05-05 18:21 35.66876 -90.98588 15107 ft 359 kts 160°
2026-05-05 18:21 35.64638 -90.97257 14711 ft 357 kts 161°
2026-05-05 18:22 35.62414 -90.95932 14311 ft 355 kts 161°
2026-05-05 18:22 35.60230 -90.94634 13967 ft 351 kts 161°
2026-05-05 18:22 35.58066 -90.93346 13846 ft 340 kts 161°
2026-05-05 18:22 35.55966 -90.92094 13772 ft 330 kts 161°
2026-05-05 18:23 35.53939 -90.90887 13696 ft 319 kts 161°
2026-05-05 18:23 35.51976 -90.89719 13622 ft 309 kts 161°
2026-05-05 18:23 35.50230 -90.88207 13503 ft 314 kts 135°
2026-05-05 18:23 35.49187 -90.85848 13341 ft 316 kts 115°
2026-05-05 18:24 35.48383 -90.83340 13011 ft 316 kts 116°
2026-05-05 18:24 35.47574 -90.80872 12702 ft 316 kts 116°
2026-05-05 18:24 35.46754 -90.78384 12432 ft 314 kts 116°
2026-05-05 18:24 35.45933 -90.75911 12145 ft 312 kts 116°
2026-05-05 18:25 35.45113 -90.73451 11908 ft 310 kts 116°
2026-05-05 18:25 35.44573 -90.71837 11751 ft 308 kts 116°
2026-05-05 18:25 35.43487 -90.68601 11431 ft 305 kts 117°
2026-05-05 18:25 35.42681 -90.66199 11185 ft 303 kts 116°
2026-05-05 18:26 35.41884 -90.63828 11048 ft 296 kts 117°
2026-05-05 18:26 35.41062 -90.61571 11010 ft 284 kts 120°
2026-05-05 18:26 35.40231 -90.59463 11002 ft 272 kts 122°
2026-05-05 18:26 35.39400 -90.57428 11014 ft 263 kts 122°
2026-05-05 18:27 35.38564 -90.55419 10729 ft 270 kts 122°
2026-05-05 18:27 35.37697 -90.53311 10094 ft 285 kts 121°
2026-05-05 18:27 35.36816 -90.51127 9814 ft 284 kts 122°
2026-05-05 18:27 35.35932 -90.48982 9575 ft 281 kts 122°
2026-05-05 18:28 35.34145 -90.44777 9072 ft 275 kts 124°
2026-05-05 18:28 35.33250 -90.42753 8813 ft 273 kts 124°
2026-05-05 18:28 35.32343 -90.40726 8571 ft 270 kts 125°
2026-05-05 18:29 35.31424 -90.38729 8317 ft 268 kts 126°
2026-05-05 18:29 35.30638 -90.36648 8038 ft 274 kts 111°
2026-05-05 18:29 35.30285 -90.34342 7772 ft 276 kts 104°
2026-05-05 18:29 35.29971 -90.32037 7519 ft 273 kts 106°
2026-05-05 18:30 35.29616 -90.29769 7233 ft 269 kts 107°
2026-05-05 18:30 35.29255 -90.27508 6920 ft 271 kts 106°
2026-05-05 18:30 35.28922 -90.25261 6631 ft 267 kts 104°
2026-05-05 18:30 35.28607 -90.23039 6293 ft 264 kts 108°
2026-05-05 18:31 35.28232 -90.20885 6015 ft 261 kts 108°
2026-05-05 18:31 35.27850 -90.18712 5781 ft 262 kts 109°
2026-05-05 18:31 35.27460 -90.16605 5658 ft 244 kts 108°
2026-05-05 18:31 35.27152 -90.14637 5541 ft 225 kts 110°
2026-05-05 18:32 35.26836 -90.12844 5405 ft 207 kts 108°
2026-05-05 18:32 35.26570 -90.11179 5263 ft 194 kts 109°
2026-05-05 18:32 35.26301 -90.09579 4981 ft 189 kts 108°
2026-05-05 18:32 35.26044 -90.08029 4666 ft 184 kts 110°
2026-05-05 18:33 35.25794 -90.06479 4303 ft 188 kts 107°
2026-05-05 18:33 35.25554 -90.04933 3962 ft 182 kts 110°
2026-05-05 18:33 35.25318 -90.03444 3754 ft 175 kts 109°
2026-05-05 18:33 35.25059 -90.01980 3581 ft 178 kts 111°
2026-05-05 18:34 35.24783 -90.00498 3440 ft 177 kts 117°
2026-05-05 18:34 35.24170 -89.99275 3275 ft 163 kts 139°
2026-05-05 18:34 35.23298 -89.98423 3159 ft 160 kts 153°
2026-05-05 18:34 35.22265 -89.97979 3077 ft 159 kts 175°
2026-05-05 18:35 35.21159 -89.97988 3062 ft 159 kts 181°
2026-05-05 18:35 35.20059 -89.97950 3025 ft 161 kts 175°
2026-05-05 18:35 35.18870 -89.97844 2520 ft 174 kts 181°
2026-05-05 18:35 35.17704 -89.97906 2388 ft 163 kts 179°
2026-05-05 18:36 35.16569 -89.97864 2262 ft 164 kts 178°
2026-05-05 18:36 35.15420 -89.97829 2164 ft 165 kts 178°
2026-05-05 18:36 35.14271 -89.97803 2011 ft 165 kts 179°
2026-05-05 18:36 35.13123 -89.97779 1807 ft 166 kts 179°
2026-05-05 18:37 35.11970 -89.97755 1589 ft 165 kts 178°
2026-05-05 18:37 35.10839 -89.97731 1386 ft 162 kts 178°
2026-05-05 18:37 35.09750 -89.97708 1200 ft 147 kts 178°
2026-05-05 18:37 35.08798 -89.97688 982 ft 131 kts 179°
2026-05-05 18:38 35.07907 -89.97669 820 ft 126 kts 178°
2026-05-05 18:38 35.07045 -89.97648 645 ft 121 kts 179°
2026-05-05 18:38 35.06193 -89.97630 485 ft 123 kts 178°
2026-05-05 18:38 35.05326 -89.97604 347 ft 124 kts 180°
2026-05-05 18:39 35.04549 -89.97593 320 ft 93 kts 179°
2026-05-05 18:39 35.04089 -89.97585 324 ft 48 kts 179°
2026-05-05 18:39 35.03880 -89.97584 322 ft 18 kts 179°
2026-05-05 18:39 35.03801 -89.97519 321 ft 14 kts 95°
2026-05-05 18:40 35.03861 -89.97454 327 ft 13 kts
2026-05-05 18:40 35.03951 -89.97455 326 ft 13 kts 358°
2026-05-05 18:40 35.04039 -89.97458 324 ft 13 kts 359°
2026-05-05 18:40 35.04149 -89.97460 326 ft 17 kts 359°
2026-05-05 18:41 35.04264 -89.97458 327 ft 16 kts
2026-05-05 18:41 35.04374 -89.97459 328 ft 16 kts 357°
2026-05-05 18:41 35.04483 -89.97465 323 ft 17 kts 358°
2026-05-05 18:41 35.04607 -89.97470 325 ft 19 kts 358°
2026-05-05 18:42 35.04743 -89.97475 324 ft 20 kts 358°
2026-05-05 18:42 35.04878 -89.97478 325 ft 19 kts 360°
2026-05-05 18:42 35.05013 -89.97479 324 ft 20 kts 360°
2026-05-05 18:42 35.05153 -89.97480 325 ft 20 kts 359°
2026-05-05 18:43 35.05288 -89.97484 326 ft 19 kts 358°
2026-05-05 18:43 35.05418 -89.97490 323 ft 18 kts 359°
2026-05-05 18:43 35.05545 -89.97491 325 ft 18 kts 359°
2026-05-05 18:43 35.05667 -89.97491 326 ft 17 kts
2026-05-05 18:44 35.05793 -89.97490 329 ft 18 kts 359°
2026-05-05 18:44 35.05916 -89.97518 330 ft 18 kts 340°
2026-05-05 18:44 35.06035 -89.97543 326 ft 17 kts 358°
2026-05-05 18:44 35.06153 -89.97544 330 ft 17 kts 360°
2026-05-05 18:45 35.06260 -89.97544 327 ft 12 kts
2026-05-05 18:45 35.06339 -89.97539 330 ft 11 kts 359°
2026-05-05 18:45 35.06382 -89.97577 325 ft 5 kts 271°
2026-05-05 18:45 35.06382 -89.97603 328 ft 0 kts 270°